Regional Weather Roundup
Issued by NWS Upton, NY

Home | Current Version | Previous Version | Text Only | Print | Product List | Glossary On
Versions: 1 2 3 4 5 6 7 8 9 10 11 12 13 14 15 16 17 18 19 20 21 22 23 24 25 26 27
000
ASUS41 KOKX 291208
RWROKX

REGIONAL WEATHER ROUNDUP
NATIONAL WEATHER SERVICE NEW YORK NY
800 AM EDT WED MAR 29 2017

NOTE: "FAIR" INDICATES FEW OR NO CLOUDS BELOW 12,000 FEET WITH NO
SIGNIFICANT WEATHER AND/OR OBSTRUCTIONS TO VISIBILITY.

NYZ071-072-176-178-NJZ106-104-291300-
NEW YORK CITY METRO AREA

CITY           SKY/WX    TMP DP  RH WIND       PRES   REMARKS
Central Park   PTSUNNY   44  38  79 N8        30.06R
Wall St Helipt CLOUDY    45  39  81 VRB5      30.06R
LaGuardia APRT PTSUNNY   46  38  73 N8        30.04R
Kennedy INTL   PTSUNNY   46  39  76 N16       30.04R
Breezy Point     N/A     45 N/A N/A N10G16      N/A
Newark/Liberty PTSUNNY   44  38  79 N17       30.05R
Teterboro      PTSUNNY   44  39  82 NW13      30.04R
$$

NYZ177-179-078>081-291300-
LONG ISLAND NEW YORK

CITY           SKY/WX    TMP DP  RH WIND       PRES   REMARKS
Jones Beach      N/A     45 N/A N/A N21G28      N/A
Matinecock PT    N/A     43 N/A N/A NE12G17     N/A
Farmingdale    SUNNY     45  37  73 N15G25    30.02R
MacArthur/ISP  MOSUNNY   44  38  79 N13       30.01R
Shirley        CLOUDY    43  42  97 N5        30.01R
Westhampton    PTSUNNY   44  39  82 N10G16    30.01R
East Hampton   CLOUDY    41  38  90 N6        29.99R
Montauk          N/A     41  39  93 N9        30.00
$$

NYZ052-065-067-291300-
HUDSON VALLEY

CITY           SKY/WX    TMP DP  RH WIND       PRES   REMARKS
White Plains   PTSUNNY   43  36  76 N14G25    30.02R
Newburgh       PTSUNNY   39  39 100 NW5       30.07R
Montgomery     CLOUDY    43  37  79 NW6       30.05R
Poughkeepsie   CLOUDY    41  36  82 N7        30.06R
Albany         LGT RAIN  39  35  86 N7        30.10S FOG     WCI  34
$$

NJZ001-105-106-008-010-013-015-019>022-104-291300-
NEW JERSEY

CITY           SKY/WX    TMP DP  RH WIND       PRES   REMARKS
Newark/Liberty PTSUNNY   44  38  79 N17       30.05R
Teterboro      PTSUNNY   44  39  82 NW13      30.04R
Caldwell       CLOUDY    44  37  76 N7        30.06R
Somerville     CLOUDY    44  36  73 NW13      30.06R
Linden         CLOUDY    45  39  79 N8        30.05R
Sussex         CLOUDY    42  34  73 N9        30.08R
Andover          N/A     40  33  76 N10G18    30.08R WCI  33
Trenton        CLOUDY    45  38  76 N15       30.06R
Millville      CLOUDY    47  43  86 N13       30.05R
Atlantic City  CLOUDY    49  43  80 N16       30.03R
Wrightstown    CLOUDY    45  40  82 N12       30.03R
Toms River     CLOUDY    46  44  93 N7        30.05R
Belmar         CLOUDY    45  41  86 N15G21    30.05R
$$

PAZ047>061-062-071-291300-
EASTERN PENNSYLVANIA

CITY           SKY/WX    TMP DP  RH WIND       PRES   REMARKS
Philadelphia   PTSUNNY   46  37  71 NW21G26   30.08R
Allentown      SUNNY     43  32  65 NW13      30.10R
Scranton       CLOUDY    40  32  73 N8        30.12R WCI  34
$$

CTZ002-004>006-009-010-012-RIZ004-006-007-MAZ004-011-015-291300-
SOUTHERN NEW ENGLAND
 IN CT

CITY           SKY/WX    TMP DP  RH WIND       PRES   REMARKS
Bradley INTL   PTSUNNY   41  38  89 N8        30.03R
Hartford       PTSUNNY   43  37  79 N10       30.03R
Danbury        CLOUDY    41  36  82 N10G20    30.05R
Wtrbury/Oxford MOSUNNY   39  32  75 N14       30.02R WCI  31
Bridgeport     SUNNY     46  35  65 N17G23    30.02R
Meriden        CLOUDY    44  37  76 NW13      30.02R
New Haven      CLOUDY    44  38  79 N10G18    30.01R
Chester        NOT AVBL
Groton         CLOUDY    43  38  82 N13       29.98R
Wilimantic     CLOUDY    43  36  76 N10       30.00R

 IN RI

CITY           SKY/WX    TMP DP  RH WIND       PRES   REMARKS
Providence     CLOUDY    40  36  86 N14       29.99R WCI  32
Block Island   CLOUDY    40  37  89 N12G18    29.98R WCI  33
Westerly       CLOUDY    42  39  89 N12       29.98R
 IN MA

CITY           SKY/WX    TMP DP  RH WIND       PRES   REMARKS
Boston         DRIZZLE   37  37 100 N10       30.01R FOG     WCI  30
Worcester      CLOUDY    37  32  82 N13       29.98R WCI  29
Westfield      PTSUNNY   40  37  89 NW6       30.03R
Provincetown   LGT RAIN  38  37  97 N16G24    29.97R WCI  29
Nantucket      CLOUDY    40  37  89 N22G28    29.92R WCI  30
$$

ANZ330-335-338-340-345-350-353-355-291300-
COASTAL MARINE OBSERVATIONS


STATION/POSITION TIME  SKY/WX   TEMP    WIND        PRES    VSBY  WAVE
                                AIR SEA DIR/SP/G                  HT/PER
                 (UTC)          (F)     (DEG/KT/KT) (MB)    (MI)  (FT/S)
NY HARB ENTRANCE 1050            44 42  340/ 12/ 14 1015.8          3/ 8
20 S FIRE ISLAND 1150            43 42  350/ 14/ 17 1015.8          4/ 9
GREAT SOUTH BAY  NOT AVBL
23 SSW MONTAUK P 1050            41 42              1014.6          3/ 9
15 E BARNEGAT LI 1130               44                N/A           4/ 9
HUDSON CANYON    1150            44 43  360/ 17/ 21 1014.7          5/ 5
KINGS POINT      1148            42 40              1017.1
EXECUTION ROCKS  NOT AVBL
CENTRAL LI SOUND 1100            42     340/ 12/ 14   N/A           1/ 2
EASTERN LI SOUND NOT AVBL
ROBBINS REEF     1148            44     350/ 19/ 21 1017.3
$$


>>>>>>>>>>>>>>>>>>>>>>>>>>>> KEY <<<<<<<<<<<<<<<<<<<<<<<<<<<
>                                                          <
>     SKY/WX - Sky Condition/Present Weather               <
>     TMP    - Temperature in Fahrenheit                   <
>     DP     - Dew Point in Fahrenheit                     <
>     RH     - Relative Humidity in Percent                <
>     WIND   - Direction (from) and Speed in MPH           <
>     PRES   - Mean Sea Level Pressure (inches of Hg)      <
>     WCI    - Wind Chill Index                            <
>     VSB    - VISIBILITY IN MILES                         <
>     HX     - HEAT INDEX                                  <
>     TC     - TEMPERATURE IN CELSIUS                      <
>     VRB    - VARIABLE WIND DIRECTION                     <
>                                                          <
>>>>>>>>>>>>>>>>>>>>>>>>>>>> KEY <<<<<<<<<<<<<<<<<<<<<<<<<<<




USA.gov is the U.S. government's official web portal to all federal, state and local government web resources and services.